Tracking 19706 objects as of 16-Jun-2019
HD Live streaming from Space Station
objects crossing your sky now

ARIANE 44L R/B

Track ARIANE 44L R/B now!
10-day predictions


NORAD ID: 22032
Int'l Code: 1992-041C
Perigee: 187.4 km
Apogee: 16,349.8 km
Inclination: 6.9 °
Period: 293.8 minutes
Semi major axis: 14639 km
RCS: 44.0573 m2 (large)
Launch date: July 9, 1992
Source: France (FR)
Launch site: FRENCH GUIANA (FRGUI)

Note: This is a ROCKET BODY
aabbcc
Your satellite tracking list
Your tracking list is empty




NASA's NSSDC Master Catalog

Two Line Element Set (TLE):
1 22032U 92041C   19167.08729932  .00075928 -93989-7  99438-3 0  9992
2 22032   6.9267 221.7052 5520080  77.5388 336.3455  4.90125916353522
Source of the keplerian elements: AFSPC